[[{"header":{"parameterUnit":"m.s-1","parameterCategory":1,"la1":30.2991,"la2":30.254,"lo1":-89.0895,"lo2":-89.0444,"dy":0.0017,"dx":0.0017,"nx":28,"ny":28,"refTime":"2024-02-24T03:00:00:Z","depth":0,"parameterNumber":2,"parameterNumberName":"U-component_of_WINDS"},"data":[0,0,0,0,0,0,0,0,0,0,0,0,0,0,0,0,0,0,0,0,0,0,0,0,0,0,0,0,0,0,0,0,0,0,0,0,0,0,0,0,0,0,0,0,0,0,0,0,0,0,0,0,0,0,0,0,0,0,1.867,1.867,0,1.8703,1.8703,1.8703,1.867,1.8669,1.8667,1.8666,1.8702,1.8704,1.8707,0,0,0,0,0,0,0,0,0,0,0,0,0,1.8582,1.8583,1.867,1.867,1.8671,1.8703,1.8703,1.8703,1.867,1.8669,1.8667,1.8666,1.8702,1.8704,1.8707,0,0,0,0,0,0,0,0,0,0,0,0,0,1.8618,1.8584,1.867,1.8658,1.8657,1.8702,1.8703,1.8704,1.8671,1.8669,1.8667,1.8665,1.8701,1.8704,1.8707,1.8766,0,0,1.8717,1.8718,0,0,0,0,0,0,0,0,1.8616,1.8621,1.8659,1.8659,1.8658,1.868,1.8685,1.8725,1.8671,1.8666,1.8666,1.8664,1.8697,1.87,1.8711,1.8768,1.877,1.8717,1.8719,1.8721,1.8722,0,0,0,0,0,0,0,1.8613,1.8619,1.8683,1.866,1.8659,1.8652,1.8655,1.8692,1.8692,1.8666,1.8664,1.8668,1.8696,1.8708,1.8711,1.877,1.8717,1.872,1.8722,1.8723,1.888,1.8882,0,0,0,0,0,0,1.8612,1.8618,1.8682,1.8684,1.8632,1.8655,1.8658,1.8675,1.8691,1.8692,1.8669,1.8666,1.8703,1.8707,1.8712,1.8784,1.8721,1.8724,1.8726,1.8878,1.8881,1.8883,0,0,0,0,0,0,1.861,1.8618,1.868,1.865,1.8657,1.8659,1.8678,1.8677,1.8688,1.8694,1.8694,1.8681,1.8702,1.8708,1.8753,1.8785,1.8725,1.8728,1.8875,1.8879,1.8882,1.8928,0,0,0,0,0,0,1.8608,1.8617,1.8639,1.8651,1.8659,1.872,1.868,1.8679,1.8694,1.869,1.8705,1.8706,1.8701,1.8749,1.8757,1.8788,1.8731,1.8872,1.8877,1.8881,1.8923,1.8932,1.894,0,0,0,0,0,1.8604,1.8651,1.864,1.8648,1.8686,1.8722,1.8727,1.8719,1.8696,1.8719,1.8723,1.8705,1.878,1.8754,1.8762,1.8796,1.887,1.8876,1.888,1.892,1.8931,1.894,0,0,0,0,0,0,1.8643,1.8652,1.864,1.8692,1.8706,1.8716,1.8744,1.8731,1.8753,1.8748,1.8739,1.8742,1.8791,1.8798,1.8768,1.8855,1.8822,1.8829,1.8849,1.8859,1.8867,1.8865,1.8733,0,0,0,0,0,1.8657,1.8685,1.8691,1.8736,1.8744,1.8743,1.8758,1.8751,1.8766,1.8773,1.878,1.8796,1.8823,1.8841,1.8866,1.8924,1.8928,1.8951,1.8959,1.8966,1.8973,1.9005,1.9016,1.8899,1.8899,1.8899,0,0,1.8688,1.8696,1.8714,1.8744,1.8755,1.8785,1.8748,1.8781,1.8804,1.8778,1.8821,1.8827,1.8845,1.8897,1.8921,1.8904,1.9006,1.8972,1.8978,1.8981,1.9012,1.9023,1.9033,1.8903,1.8902,1.8901,0,0,1.8758,1.8767,1.8805,1.8817,1.8833,1.8832,1.8842,1.8854,1.8857,1.89,1.8882,1.8909,1.8956,1.897,1.8983,1.906,1.9045,1.9068,1.9111,1.9143,1.9153,1.9161,1.919,1.92,1.9075,1.9075,1.9075,0,1.8794,1.8837,1.8827,1.8862,1.8876,1.8854,1.8894,1.8906,1.893,1.8941,1.8922,1.8981,1.8991,1.9048,1.9066,1.9077,1.9089,1.9067,1.9152,1.916,1.9168,1.9195,1.9206,1.9078,1.9077,1.9077,1.9077,0,1.8881,1.8911,1.8941,1.8965,1.8982,1.902,1.9017,1.9036,1.9028,1.903,1.9076,1.9087,1.9115,1.9127,1.912,1.9183,1.9173,1.9153,1.912,1.9182,1.9208,1.9218,1.9082,1.9081,1.908,1.9079,0,0,1.8977,1.8995,1.9006,1.9017,1.9034,1.9058,1.9095,1.9121,1.9139,1.9157,1.9189,1.9229,1.9212,1.9227,1.922,1.9248,1.9311,1.9225,1.9226,1.9242,1.9383,1.9399,1.9411,1.9301,1.9303,1.9304,1.9383,0,1.9049,1.9112,1.9105,1.9165,1.9194,1.9174,1.9206,1.9221,1.9224,1.925,1.9253,1.9283,1.9256,1.9266,1.9292,1.9298,1.9339,1.9292,1.9332,1.9333,1.9329,1.9424,1.9441,1.9514,1.9392,1.9394,1.9395,0,1.9141,1.9162,1.9225,1.9239,1.9251,1.928,1.9305,1.9329,1.9346,1.9346,1.9364,1.9353,1.9392,1.9357,1.9411,1.9379,1.9395,1.94,1.9403,1.9407,1.9369,1.9433,1.9537,1.9548,1.9411,1.941,1.9409,0,1.9206,1.925,1.9294,1.9304,1.9321,1.9342,1.935,1.9365,1.9382,1.9404,1.9415,1.9442,1.9457,1.9478,1.9476,1.945,1.9532,1.9496,1.9534,1.9535,1.9553,1.9552,1.9662,1.9561,1.9561,1.9561,1.9561,0,1.9288,1.9328,1.9324,1.9351,1.9396,1.9388,1.9433,1.9439,1.9452,1.9481,1.9465,1.9493,1.9488,1.9516,1.9514,1.956,1.9567,1.9569,1.9569,1.9572,1.9572,1.9583,1.9578,1.9564,1.9563,1.9563,1.9562,0,1.9368,1.9367,1.9414,1.9426,1.943,1.9463,1.9474,1.95,1.9502,1.9539,1.9548,1.9551,1.9584,1.9583,1.962,1.9619,1.9676,1.9669,1.967,1.9669,1.9708,1.9705,1.983,1.9847,1.9734,1.9735,1.9736,0,1.9421,1.9451,1.9467,1.9485,1.9494,1.9524,1.9541,1.9535,1.9554,1.9576,1.9601,1.9632,1.9656,1.971,1.9716,1.9745,1.9739,1.9781,1.9744,1.9746,1.9742,1.9741,1.9744,1.9789,1.979,1.9791,1.9792,0,1.9515,1.9513,1.9539,1.9564,1.9586,1.9606,1.9624,1.964,1.9636,1.9659,1.9692,1.9711,1.9749,1.9781,1.9809,1.9818,1.9806,1.9804,1.9815,1.9818,1.9818,1.982,1.9692,1.9801,1.98,1.98,1.9799,1.9799,1.9584,1.9611,1.9627,1.9656,1.9669,1.9687,1.9713,1.9718,1.9745,1.9775,1.977,1.9808,1.9825,1.9862,1.9874,1.9904,1.989,1.9904,1.9909,1.9913,1.9918,1.9813,1.9909,1.9909,1.9909,1.9908,1.9908,0,1.9679,1.9688,1.9715,1.9742,1.9765,1.975,1.977,1.9791,1.9824,1.9841,1.9866,1.9905,1.9936,1.9945,1.9975,1.9998,1.9993,2.0006,2.0005,2.0008,1.9928,1.9917,2.001,2.001,2.001,2.001,2.001,2.001,1.9731,1.9776,1.9776,1.9828,1.9837,1.9873,1.9886,1.9904,1.9917,1.9961,1.9987,1.9992,2.0007,2.0038,2.0067,2.0069,2.0081,2.0098,2.0098,2.0023,2.0013,2.0003,1.9993,2.01,2.01,2.0175,2.0175,2.0176]},{"header":{"parameterUnit":"m.s-1","parameterCategory":1,"la1":30.2991,"la2":30.254,"lo1":-89.0895,"lo2":-89.0444,"dy":0.0017,"dx":0.0017,"nx":28,"ny":28,"refTime":"2024-02-24T03:00:00:Z","depth":0,"parameterNumber":3,"parameterNumberName":"V-component_of_WINDS"},"data":[0,0,0,0,0,0,0,0,0,0,0,0,0,0,0,0,0,0,0,0,0,0,0,0,0,0,0,0,0,0,0,0,0,0,0,0,0,0,0,0,0,0,0,0,0,0,0,0,0,0,0,0,0,0,0,0,0,0,-2.5901,-2.5901,0,-2.5962,-2.5963,-2.5963,-2.597,-2.597,-2.5969,-2.5968,-2.6032,-2.6034,-2.6036,0,0,0,0,0,0,0,0,0,0,0,0,0,-2.5791,-2.5792,-2.5901,-2.5901,-2.5902,-2.5962,-2.5963,-2.5964,-2.597,-2.597,-2.5969,-2.5968,-2.6031,-2.6033,-2.6036,0,0,0,0,0,0,0,0,0,0,0,0,0,-2.5844,-2.5793,-2.59,-2.5913,-2.5914,-2.5962,-2.5963,-2.5964,-2.597,-2.597,-2.5969,-2.5968,-2.603,-2.6033,-2.6037,-2.6076,0,0,-2.6047,-2.6048,0,0,0,0,0,0,0,0,-2.5841,-2.5848,-2.591,-2.5912,-2.5914,-2.5957,-2.5947,-2.6001,-2.5971,-2.5949,-2.5968,-2.5967,-2.6008,-2.6013,-2.6026,-2.6079,-2.6082,-2.6047,-2.6049,-2.6051,-2.6052,0,0,0,0,0,0,0,-2.5837,-2.5845,-2.5925,-2.5911,-2.5913,-2.5916,-2.5922,-2.5957,-2.5983,-2.5951,-2.5952,-2.5959,-2.6009,-2.6023,-2.6028,-2.6083,-2.6047,-2.605,-2.6052,-2.6053,-2.6172,-2.6173,0,0,0,0,0,0,-2.5831,-2.5842,-2.5923,-2.5927,-2.5874,-2.5918,-2.5926,-2.5944,-2.5983,-2.5987,-2.596,-2.5959,-2.6018,-2.6024,-2.603,-2.6079,-2.6051,-2.6054,-2.6056,-2.6171,-2.6172,-2.6173,0,0,0,0,0,0,-2.5829,-2.5838,-2.592,-2.5885,-2.5895,-2.5921,-2.5942,-2.5946,-2.5961,-2.5989,-2.5994,-2.597,-2.6017,-2.6025,-2.6065,-2.6082,-2.6055,-2.6058,-2.6169,-2.6171,-2.6172,-2.6178,0,0,0,0,0,0,-2.5825,-2.5837,-2.5852,-2.5885,-2.5897,-2.5954,-2.5943,-2.5948,-2.5966,-2.5966,-2.6,-2.6004,-2.6017,-2.606,-2.6068,-2.6086,-2.6061,-2.6168,-2.617,-2.6172,-2.6176,-2.618,-2.6182,0,0,0,0,0,-2.5821,-2.5851,-2.5853,-2.5862,-2.5916,-2.5955,-2.5962,-2.5976,-2.5968,-2.5983,-2.6002,-2.6003,-2.6078,-2.6064,-2.6073,-2.6092,-2.6167,-2.6169,-2.6172,-2.6175,-2.6179,-2.6182,0,0,0,0,0,0,-2.5819,-2.5855,-2.5858,-2.5899,-2.5924,-2.5956,-2.5975,-2.5979,-2.6007,-2.6005,-2.6022,-2.6029,-2.6068,-2.6084,-2.6067,-2.6133,-2.6122,-2.6126,-2.6121,-2.6125,-2.6128,-2.6123,-2.6064,0,0,0,0,0,-2.5824,-2.5852,-2.5882,-2.5915,-2.5927,-2.5949,-2.5967,-2.5975,-2.6002,-2.6012,-2.6033,-2.6059,-2.6089,-2.6108,-2.6136,-2.6179,-2.6187,-2.6197,-2.62,-2.6202,-2.6206,-2.623,-2.6235,-2.6181,-2.6181,-2.6181,0,0,-2.5833,-2.5856,-2.5873,-2.5915,-2.5935,-2.5964,-2.5958,-2.5989,-2.6011,-2.6017,-2.6055,-2.6072,-2.6102,-2.6143,-2.6162,-2.6158,-2.6223,-2.6205,-2.6207,-2.6209,-2.6233,-2.6239,-2.6243,-2.6183,-2.6183,-2.6182,0,0,-2.5865,-2.5885,-2.5915,-2.5936,-2.5966,-2.5981,-2.5988,-2.602,-2.6031,-2.607,-2.6076,-2.6102,-2.6153,-2.6174,-2.6191,-2.6232,-2.6235,-2.6241,-2.6257,-2.6281,-2.6285,-2.6289,-2.6304,-2.6309,-2.6245,-2.6245,-2.6245,0,-2.5872,-2.5916,-2.593,-2.5961,-2.598,-2.5987,-2.6019,-2.6038,-2.6076,-2.609,-2.6084,-2.6148,-2.6168,-2.6215,-2.6225,-2.6239,-2.6248,-2.6238,-2.6283,-2.6287,-2.6291,-2.6306,-2.6312,-2.6246,-2.6245,-2.6245,-2.6245,0,-2.5924,-2.5954,-2.5975,-2.6012,-2.6034,-2.6064,-2.6084,-2.6104,-2.6111,-2.6127,-2.6167,-2.6192,-2.6226,-2.6238,-2.6245,-2.6286,-2.6283,-2.628,-2.6269,-2.6297,-2.6311,-2.6317,-2.6246,-2.6246,-2.6246,-2.6246,0,0,-2.5955,-2.6001,-2.6008,-2.6026,-2.6061,-2.6085,-2.6116,-2.615,-2.6167,-2.6194,-2.6221,-2.6264,-2.6262,-2.6282,-2.6292,-2.6312,-2.6344,-2.6307,-2.6308,-2.6314,-2.6392,-2.6394,-2.6401,-2.6346,-2.6348,-2.6349,-2.639,0,-2.5991,-2.6047,-2.6062,-2.611,-2.6138,-2.6146,-2.6174,-2.6199,-2.6214,-2.6241,-2.6259,-2.6289,-2.6284,-2.6296,-2.6317,-2.6336,-2.636,-2.6333,-2.6373,-2.6374,-2.6365,-2.6408,-2.641,-2.6448,-2.6395,-2.6396,-2.6397,0,-2.604,-2.6068,-2.6119,-2.6152,-2.6164,-2.6189,-2.6221,-2.6247,-2.6275,-2.6285,-2.6308,-2.6316,-2.635,-2.6338,-2.6385,-2.6366,-2.6384,-2.6395,-2.6397,-2.6402,-2.6387,-2.6414,-2.646,-2.6466,-2.6406,-2.6405,-2.6405,0,-2.6059,-2.6109,-2.6146,-2.6161,-2.6199,-2.6217,-2.6234,-2.6261,-2.6281,-2.631,-2.6323,-2.6355,-2.6373,-2.6398,-2.6415,-2.6404,-2.6461,-2.645,-2.6471,-2.6471,-2.6483,-2.6482,-2.6533,-2.6493,-2.6493,-2.6493,-2.6493,0,-2.6097,-2.6128,-2.6155,-2.6178,-2.6214,-2.623,-2.6265,-2.6282,-2.6307,-2.6334,-2.6343,-2.6368,-2.6389,-2.6417,-2.643,-2.6468,-2.6476,-2.6486,-2.6489,-2.6485,-2.6484,-2.6497,-2.6495,-2.6494,-2.6494,-2.6494,-2.6494,0,-2.6124,-2.6143,-2.6184,-2.6218,-2.6227,-2.6251,-2.628,-2.6303,-2.6319,-2.6353,-2.6362,-2.6388,-2.6421,-2.6441,-2.6483,-2.6492,-2.6535,-2.6537,-2.6525,-2.6527,-2.6547,-2.6545,-2.6608,-2.6618,-2.6571,-2.6571,-2.6572,0,-2.6147,-2.6171,-2.6207,-2.6226,-2.6243,-2.6273,-2.6293,-2.6311,-2.6332,-2.6367,-2.6386,-2.6421,-2.6449,-2.6503,-2.6525,-2.6558,-2.6561,-2.6581,-2.6566,-2.6562,-2.6562,-2.6561,-2.6564,-2.6584,-2.6584,-2.6585,-2.6585,0,-2.6187,-2.6196,-2.6224,-2.6257,-2.6281,-2.6308,-2.6334,-2.6349,-2.6371,-2.6394,-2.6429,-2.6451,-2.6495,-2.6529,-2.6564,-2.6582,-2.6588,-2.6589,-2.6596,-2.6593,-2.6585,-2.659,-2.6533,-2.6588,-2.6588,-2.6587,-2.6587,-2.6587,-2.6213,-2.6235,-2.6264,-2.6297,-2.6318,-2.6343,-2.6367,-2.6386,-2.6415,-2.6452,-2.6461,-2.6498,-2.6527,-2.6575,-2.6594,-2.6623,-2.662,-2.6629,-2.6632,-2.6634,-2.6635,-2.658,-2.663,-2.663,-2.663,-2.6629,-2.6629,0,-2.6254,-2.6273,-2.6303,-2.6339,-2.6365,-2.6368,-2.6398,-2.6419,-2.6451,-2.6478,-2.6506,-2.6547,-2.658,-2.6606,-2.664,-2.6659,-2.6663,-2.6668,-2.6667,-2.6671,-2.6636,-2.6627,-2.6665,-2.6665,-2.6665,-2.6665,-2.6665,-2.6665,-2.6278,-2.6316,-2.6328,-2.6378,-2.6397,-2.6433,-2.645,-2.6473,-2.6495,-2.654,-2.6568,-2.6584,-2.6611,-2.6648,-2.6679,-2.6686,-2.6699,-2.6704,-2.6711,-2.6677,-2.6673,-2.667,-2.6662,-2.6706,-2.6706,-2.6744,-2.6744,-2.6744]}]]